ELECTRON KICK STAGE R/B, 57694

Orbit data source: Space-Track

ELECTRON KICK STAGE R/B, 57694 is space debris in LEO originally from a launch on Wed, 23 Aug 2023 UTC launched from the Rocket Lab Launch Complex (RLLC). Debris objects in space refer to the collection of defunct objects orbiting the Earth. Examples of debris include non-operational satellites, rocket bodies, and fragments generated from explosions, collisions, or faulty payload assembly.

Loading next visibility...
Identifier
57694, 2023-126B
Orbit
LEO
Country
Flag of USUS
Related business
Manufacturer
Rocket Lab
Mission
Spacecraft
Bus & Motor
KICK STAGE, CURIE
Mass
~40 kg wet, ~40 kg dry
Launch date (UTC)
2023-08-23 (3 years ago)
Launch vehicle
Unknown
Launch site
Rocket Lab Launch Complex (RLLC)
Object type
Payload
Rocket body
Debris
Shape & HBR
Trunc Cone, 0.7 m
Radar Cross Section
0.760 m², Medium (>0.1 m² and < 1m²)

Expand to show TLE details & history
Last TLE update: 1 day ago

TLE from 1 day ago
0 ELECTRON KICK STAGE R/B
1 57694U 23126B   26093.47823308  .00003569  00000-0  44861-3 0  9999
2 57694  53.0069 138.1719 0008891 161.7669 198.3630 14.84291748141192
Epoch: 2026-04-03T11:28Z
TLE epoch observation values (Epoch: 2026-04-03T11:28:39.338Z)
Latitude
-0.00001°
Longitude
134.1962°
Altitude
622.578 km
Speed
7.545 km/s
True Right ascension
09h 12m 41s
True Declination
0° 00' 00"
Sunlit
Object was in full shadow at epoch
Visualization orbit readout
Latitude
Unknown
Longitude
Unknown
Altitude
Unknown
Speed
Unknown
Apparent Right ascension
Unknown
Apparent Declination
Unknown
Sunlit
N/A
Visualization observer readout
Local Sidereal Time
18:22:21
Azimuth
Unknown
Elevation
Unknown
Doppler factor
Unknown
Orbital elements
Apogee altitude
622.304 km
Perigee altitude
609.867 km
Semi-major axis
6,994.223 km
Eccentricity
0.00089
Inclination
53.0069°
RAAN
138.1719°
Arg. of periapsis
161.7669°
True anomaly
198.33094°
Mean anomaly
198.363°
Eccentric anomaly
198.34697°
Mean motion
3.71051 °/min
Orbital period
97.02 mins
BSTAR
0.00044861
Loading maneuver chart data...
Computing Atmospheric mass density...
Loading historical data...
Loading historical data...
Loading historical data...
Loading historical data...
Loading historical data...
Loading historical data...
Loading historical data...
Other satellites on launch #126 in the year 2023 (2023-08-23 UTC)

Documentation

Showing up to 5 results
|